Regional Weather Roundup
Issued by NWS

Home | Current Version | Previous Version | Text Only | Print | Product List | Glossary On
Versions: 1 2 3 4 5 6 7 8 9 10 11 12 13 14 15 16 17 18 19 20 21 22 23 24 25 26 27 28 29 30 31 32 33 34 35 36 37 38 39 40 41 42 43 44 45 46 47 48 49 50
000
ASUS45 KPSR 162200
RWRAZ

PRELIMINARY ARIZONA REGIONAL HOURLY WEATHER ROUNDUP
NATIONAL WEATHER SERVICE PHOENIX AZ
300 PM MST TUE SEP 16 2014

NOTE: FAIR INDICATES FEW OR NO CLOUDS BELOW 12,000 FEET WITH NO
SIGNIFICANT WEATHER AND/OR OBSTRUCTIONS TO VISIBILITY.

AZZ001>003-036-162300-
NORTHWEST ARIZONA

CITY           SKY/WX    TMP DP  RH WIND       PRES   REMARKS
KINGMAN        MOSUNNY   89  62  40 S18       29.97F
$$

AZZ004>008-015-016-018-162300-
NORTH CENTRAL ARIZONA

CITY           SKY/WX    TMP DP  RH WIND       PRES   REMARKS
GRAND CANYON   MOSUNNY   80  47  31 NE15G21   30.22F
PRESCOTT       CLOUDY    74  57  55 S8        30.12S THUNDER
FLAGSTAFF      PTSUNNY   65  55  70 S15       30.26S
PAYSON         CLOUDY    72  61  68 S9        30.16F
PAGE           SUNNY     91  49  23 N8        30.04F
$$

AZZ009>014-017-162300-
NORTHEAST ARIZONA

CITY           SKY/WX    TMP DP  RH WIND       PRES   REMARKS
WINSLOW        NOT AVBL
SAINT JOHNS    CLOUDY    73  52  47 S16       30.19F
$$

AZZ023-162300-
GREATER PHOENIX AREA

CITY           SKY/WX    TMP DP  RH WIND       PRES   REMARKS
PHOENIX        LGT RAIN  82  69  64 E9        29.87F
GLENDALE       PTSUNNY   82  70  65 E9        29.89F
DEER VALLEY    LGT RAIN  83  67  58 SE10      29.89F
SCOTTSDALE     LGT RAIN  81  67  62 E7        29.91F
MESA-GATEWAY   PTSUNNY   81  72  74 NE9       29.90F
CHANDLER       CLOUDY    81  72  74 NE6       29.88F
$$

AZZ027-028-162300-
SOUTHWEST MARICOPA COUNTY AND PINAL COUNTY

CITY           SKY/WX    TMP DP  RH WIND       PRES   REMARKS
CASA GRANDE    CLOUDY    82  68  61 N10       29.89F
GILA BEND      MOCLDY    84  68  58 E7        29.85F
$$

AZZ503-504-507>509-162300-
SOUTHEAST ARIZONA

CITY           SKY/WX    TMP DP  RH WIND       PRES   REMARKS
TUCSON         CLOUDY    82  65  56 E8        29.96F
RYAN FIELD       N/A     82  68  61 E7        29.94F
NOGALES        LGT RAIN  75  63  66 E12G20    29.99F
SAFFORD        CLOUDY    69  67  93 CALM      30.06S
$$

AZZ020-021-025-026-031-162300-
SOUTHWEST ARIZONA

CITY           SKY/WX    TMP DP  RH WIND       PRES   REMARKS
YUMA           CLOUDY    98  60  28 E15       29.76F
$$

CAZ031-033-041-043-047-048-061-162300-
SOUTHERN CALIFORNIA

CITY           SKY/WX    TMP DP  RH WIND       PRES   REMARKS
DOWNTOWN L.A.  SUNNY     94  58  29 VRB3      29.70F
L.A. AIRPORT   MOSUNNY   81  59  47 W15       29.71F
SAN DIEGO      MOSUNNY   91  64  40 NW13      29.69F
BURBANK        SUNNY    101  55  21 S9        29.71F
ONTARIO        MOSUNNY  106  54  17 SW13G22   29.70F HX 104
RIVERSIDE      MOSUNNY  106  55  18 W14G23    29.70F HX 105
PALM SPRINGS   MOSUNNY  101  64  29 SE6       29.76F HX 104
EL CENTRO NAS  MOSUNNY  102  63  27 E15       29.71F HX 104
IMPERIAL       MOSUNNY  100  64  30 SE14      29.71F HX 102
BLYTHE         SUNNY     99  64  31 MISG      29.75F HX 101
$$

NVZ020-UTZ003-162300-
SOUTHERN NEVADA-UTAH

CITY           SKY/WX    TMP DP  RH WIND       PRES   REMARKS
LAS VEGAS      NOT AVBL
SALT LAKE CITY MOSUNNY   92  36  14 VRB3      29.99F
$$

NMZ009-TXZ055-162300-
NEW MEXICO-WEST TEXAS

CITY           SKY/WX    TMP DP  RH WIND       PRES   REMARKS
ALBUQUERQUE    CLOUDY    72  55  55 SW9       30.21F
EL PASO        CLOUDY    79  62  56 E8        30.09F
$$


........................KEY........................
SKY/WX - SKY CONDITION/WEATHER
TMP    - TEMPERATURE IN FAHRENHEIT
DP     - DEW POINT IN FAHRENHEIT
RH     - RELATIVE HUMIDITY IN PERCENT
WIND   - DIRECTION AND SPEED IN MILES PER HOUR (MPH)
VRB    - VARIABLE WIND DIRECTION
PRES   - MEAN SEA LEVEL PRESSURE IN INCHES OF MERCURY
         F - FALLING PRESSURE   R - RISING PRESSURE
         S - STEADY PRESSURE
VSB    - VISIBILITY IN MILES
HX     - HEAT INDEX IN FAHRENHEIT
WCI    - WIND CHILL INDEX IN FAHRENHEIT
TC     - TEMPERATURE IN CELSIUS WHICH IS ALSO KNOWN AS
         TEMPERATURE IN CENTIGRADE
AFB    - AIR FORCE BASE
         LUKE AFB IS LUKE AIR FORCE BASE
         DAVIS-MONTHAN IS DAVIS-MONTHAN AIR FORCE BASE
NAS    - NAVAL AIR STATION
         EL CENTRO NAS IS EL CENTRO NAVAL AIR STATION
N/A    - NOT AVAILABLE


USA.gov is the U.S. government's official web portal to all federal, state and local government web resources and services.